CZ-4 DEB, 26323

Orbit data source: Space-Track

CZ-4 DEB, 26323 is space debris in SSO originally from a launch on Thu, 14 Oct 1999 UTC launched from the Taiyaun Space Center, China (TSC). Debris objects in space refer to the collection of defunct objects orbiting the Earth. Examples of debris include non-operational satellites, rocket bodies, and fragments generated from explosions, collisions, or faulty payload assembly.

Loading next visibility...
Identifier
26323, 1999-057HG
Orbit
SSO
Country
Flag of CNCN / PRC
Related business
Manufacturer
Unknown
Mission
Spacecraft
Bus & Motor
Unknown
Mass
Unknown
Launch date (UTC)
1999-10-14 (26 years ago)
Launch vehicle
Unknown
Launch site
Taiyaun Space Center, China (TSC)
Object type
Payload
Rocket body
Debris
Shape & HBR
Unknown shape, 0.1 m
Radar Cross Section
Small (<0.1 m²)

Expand to show TLE details & history
Last TLE update: 17 hours ago

TLE from 17 hours ago
0 CZ-4 DEB
1 26323U 99057HG  25296.84339045  .00003167  00000-0  68572-3 0  9994
2 26323  98.4635 355.5317 0068901  63.6518 358.6934 14.57463722348841
Epoch: 2025-10-23T20:14Z
TLE epoch observation values (Epoch: 2025-10-23T20:14:28.934Z)
Latitude
61.25705°
Longitude
3.75971°
Altitude
663.052 km
Speed
7.558 km/s
True Right ascension
22h 39m 30s
True Declination
61° 06' 35"
Sunlit
Object was in full shadow at epoch
Visualization orbit readout
Latitude
Unknown
Longitude
Unknown
Altitude
Unknown
Speed
Unknown
Apparent Right ascension
Unknown
Apparent Declination
Unknown
Sunlit
N/A
Visualization observer readout
Local Sidereal Time
08:55:13
Azimuth
Unknown
Elevation
Unknown
Doppler factor
Unknown
Orbital elements
Apogee altitude
747.23 km
Perigee altitude
649.713 km
Semi-major axis
7,076.609 km
Eccentricity
0.00689
Inclination
98.4635°
RAAN
355.5317°
Arg. of periapsis
63.6518°
True anomaly
358.67524°
Mean anomaly
358.6934°
Eccentric anomaly
358.68434°
Mean motion
3.64591 °/min
Orbital period
98.74 mins
BSTAR
0.00068572
Loading maneuver chart data...
Computing Atmospheric mass density...
Loading historical data...
Loading historical data...
Loading historical data...
Loading historical data...
Loading historical data...
Loading historical data...
Loading historical data...

Documentation

Showing up to 5 results
|